Regional Weather Roundup
Issued by NWS Cleveland, OH

Home | Current Version | Previous Version | Graphics & Text | Print | Product List | Glossary On
Versions: 1 2 3 4 5 6 7 8 9 10 11 12 13 14 15 16 17 18 19 20 21 22 23 24 25 26 27 28 29 30 31 32 33 34 35 36 37 38 39 40 41 42 43 44 45 46 47 48 49 50
000
ASUS41 KCLE 260510
RWRCLE
OHIO REGIONAL WEATHER ROUNDUP
NATIONAL WEATHER SERVICE CLEVELAND, OH
1200 AM EST MON JAN 26 2015

NOTE: "FAIR" INDICATES FEW OR NO CLOUDS BELOW 12,000 FEET WITH NO
SIGNIFICANT WEATHER AND/OR OBSTRUCTIONS TO VISIBILITY.

OHZ001>008-015>018-024>027-034-035-043-044-260600-
   NORTHWEST OHIO

CITY           SKY/WX    TMP DP  RH WIND       PRES   REMARKS
DEFIANCE       LGT SNOW  19  11  70 NE14      29.93R WCI   6
FINDLAY        LGT SNOW  18  13  80 NE20      29.87S WCI   2
TOLEDO EXPRESS CLOUDY    18   7  62 NE14      29.93F WCI   4
TOLEDO EXEC    CLOUDY    18   7  62 NE12G20   29.94F WCI   5
LIMA           LGT SNOW  19  14  81 N18G24    29.84R WCI   4
$$

OHZ009>014-019>023-028>033-038-089-260600-
   NORTHEAST OHIO

CITY           SKY/WX    TMP DP  RH WIND       PRES   REMARKS
CLE-HOPKINS    LGT SNOW  19  16  88 NE14      29.91S VSB 1   WCI   6
CLE-LAKEFRONT  LGT SNOW  21  14  74 NE12      29.90S WCI   9
CUY CO. ARPT   NOT AVBL
LORAIN-ELYRIA  LGT SNOW  19  16  88 NE16G25   29.88F FOG     WCI   4
ASHTABULA      CLOUDY    18   4  54 NE9       29.90S WCI   7
AKRON-CANTON   LGT SNOW  21  16  81 NE14      29.80F VSB 3/4 WCI   8
WOOSTER        LGT SNOW  20  17  88 NE13G20   29.81F VSB 1   WCI   7
MANSFIELD      LGT SNOW  19  16  88 N13       29.80F VSB 3/4 WCI   6
YOUNGSTOWN     LGT SNOW  19  16  88 NE12      29.82F FOG     WCI   7
$$

OHZ042-051>053-060>062-070>072-077>081-260600-
  SOUTHWEST OHIO

CITY           SKY/WX    TMP DP  RH WIND       PRES   REMARKS
CINC-COVINGTON LGT SNOW  31  29  92 N14       29.69R FOG     WCI  21
CINC-LUNKEN    LGT SNOW  32  32 100 N14       29.73R FOG     WCI  22
HAMILTON       LGT SNOW  27  25  92 N12       29.76R FOG     WCI  17
DAYTON         LGT SNOW  24  21  88 N17       29.77S FOG     WCI  11
WRIGHT-PAT AFB LGT SNOW  24  21  87 NE14      29.76S FOG     WCI  12
DAYTON GENERAL LGT SNOW  25  23  92 NE15      29.73S FOG     WCI  13
WILMINGTON     LGT SNOW  27  24  89 N12G21    29.71R FOG     WCI  17
$$

OHZ036-037-039>041-045>050-054>059-063>069-073>076-082>088-260600-
  CENTRAL AND SOUTHEAST OHIO

CITY           SKY/WX    TMP DP  RH WIND       PRES   REMARKS
COLUMBUS       LGT SNOW  27  23  85 NE15      29.75S FOG     WCI  15
OSU AIRPORT    LGT SNOW  25  22  88 N12       29.76S FOG     WCI  14
BOLTON FIELD   CLOUDY    27  25  94 NE15      29.75F WCI  15
RICKENBACK AFB LGT SNOW  30  29  94 NE15      29.74S WCI  19
NEWARK         LGT SNOW  28  25  88 NE8       29.75S FOG     WCI  20
MARION         LGT SNOW  20  16  84 NE20      29.81S VSB 3/4 WCI   4
LANCASTER      LGT SNOW  31  29  92 N10       29.74F FOG     WCI  22
ZANESVILLE     LGT SNOW  31  28  89 N8        29.74F FOG     WCI  23
NEW PHILLY     LGT SNOW  25  21  85 N7        29.80S VSB 1   WCI  17
$$



USA.gov is the U.S. government's official web portal to all federal, state and local government web resources and services.